This is the latest recevied weather packets stored in our database for station/object OM6ABF-12. If no packets are shown the sender has not sent any weather packets the latest 10 day(s).
| Time | Temp. | Humidity | Pressure | Rain* | Wind** | Luminosity | Snow |
|---|---|---|---|---|---|---|---|
| 1777356314 | 4.44° C | 38% | 1028.7 hPa | - | - | - | - |
| 1777355357 | 3.89° C | 39% | 1028.7 hPa | - | - | - | - |
| 1777354400 | 3.33° C | 39% | 1028.6 hPa | - | - | - | - |
| 1777353442 | 2.78° C | 43% | 1028.5 hPa | - | - | - | - |
| 1777352484 | 2.22° C | 43% | 1028.5 hPa | - | - | - | - |
| 1777351527 | 1.67° C | 47% | 1028.5 hPa | - | - | - | - |
| 1777350569 | 1.11° C | 46% | 1028.4 hPa | - | - | - | - |
| 1777349613 | 1.11° C | 45% | 1028.3 hPa | - | - | - | - |
| 1777348656 | 1.11° C | 43% | 1028 hPa | - | - | - | - |
| 1777347699 | 1.67° C | 42% | 1027.9 hPa | - | - | - | - |
| 1777346742 | 1.67° C | 40% | 1028 hPa | - | - | - | - |
| 1777345786 | 1.67° C | 39% | 1028.1 hPa | - | - | - | - |
| 1777344829 | 1.67° C | 39% | 1028.2 hPa | - | - | - | - |
| 1777343872 | 1.67° C | 38% | 1028.2 hPa | - | - | - | - |
| 1777342915 | 1.67° C | 38% | 1028.1 hPa | - | - | - | - |
| 1777341959 | 1.67° C | 39% | 1028.1 hPa | - | - | - | - |
| 1777341001 | 1.67° C | 42% | 1028.2 hPa | - | - | - | - |
| 1777340043 | 1.11° C | 43% | 1028.3 hPa | - | - | - | - |
| 1777339086 | 1.67° C | 42% | 1028.2 hPa | - | - | - | - |
| 1777338128 | 1.67° C | 40% | 1028.3 hPa | - | - | - | - |
| 1777337170 | 2.22° C | 42% | 1028.4 hPa | - | - | - | - |
| 1777336213 | 2.78° C | 39% | 1028.4 hPa | - | - | - | - |
| 1777335254 | 2.78° C | 40% | 1028.5 hPa | - | - | - | - |
| 1777334298 | 2.78° C | 40% | 1028.5 hPa | - | - | - | - |
| 1777333341 | 2.78° C | 41% | 1028.5 hPa | - | - | - | - |
* Rain since midnight (hover to see other rain measurements)
** Current wind speed in m/s (hover to see current wind gust speed)